Погода в Малом Спирине

Россия / Республика Хакасия     54°26′24″N   89°56′40″E
темп.,
°C
ветер,
м/с
пор.,
м/с
влажн.,
%
обл.,
%
осадки,
мм/ч
давл.,
гПа
погр.,
м
19 сентября, вс
вс1901:00+7ююз118469 0.0 101111
04:00+7ю118427 0.0 101117
07:00+7ю1186100 0.0 101014
10:00+12юв1266100 0.0 1009363
13:00+15сз1352100 0.1 1008970
16:00+17з463999 0.0 10061700
19:00+13зсз2250100 0.0 100619
22:00+11юз1157100 0.0 100610
20 сентября, пн
пн2001:00+11ююв4855100 0.0 1004188
04:00+8зюз226299 0.0 100313
07:00+7зюз51279100 1.3 1006780
10:00+6з7137578 0.2 10111183
13:00+8зюз9125529 0.3 10131578
16:00+8зюз7104998 0.1 10131971
19:00+6зюз485896 0.1 1013834
22:00+2ююз357999 0.0 1013107
21 сентября, вт
вт2101:00+2ююз2376100 0.0 101359
04:00+2юз378395 0.5 1013375
07:00+1юз3680100 0.5 1014234
10:00+5з61053100 0.0 10141621
13:00+6з6941100 0.1 10142106
16:00+6з7945100 0.1 10151839
19:00+3з475999 0.1 1018248
22:00−1юз367815 0.0 1020115
22 сентября, ср
ср2201:000юз397294 0.0 1020298
04:000юз3468100 0.0 1020140
07:00−2юз338148 0.0 102251
10:00+4зюз694799 0.0 10211356
13:00+6зюз5741100 0.0 10211893
16:00+6зюз773997 0.0 10211834
19:00+3з3555100 0.0 1022172
22:00+2з2260100 0.0 102258
23 сентября, чт
чт2301:00+2ююв236395 0.0 102282
04:00−1ююз228169 0.0 102127
07:000ююз1170100 0.0 102140
10:00+4ююв1249100 0.0 1020547
13:00+6ююз2444100 0.0 10181594
16:00+6зюз2352100 0.0 10181240
19:00+5зсз1153100 0.0 101917
22:00+3юз1164100 0.0 101914